Location: Narvik
(68.4360°N, 17.4370°E)
Time: 21:17:34
(UTC+02:00)

YUBILEINY - Visible Passes

Search period start: 18 October 2019 00:00
Search period end: 27 October 2019 23:00
Orbit: 1478 x 1508 km, 82.5° (Epoch: 18 October)

Date Brightness Start Highest point End Pass type
(mag) Time Alt. Az. Time Alt. Az. Time Alt. Az.
18 Oct ? 00:43:05 10° E 00:48:23 18° NE 00:53:40 10° NNE visible
18 Oct ? 02:34:51 10° SE 02:42:43 38° ENE 02:50:35 10° NNE visible
18 Oct ? 04:29:47 10° S 04:38:39 81° ESE 04:47:31 10° NNE visible
18 Oct ? 06:27:32 10° SW 06:36:12 54° NW 06:44:53 10° NNE visible
18 Oct ? 18:16:31 10° NNW 18:22:06 19° NW 18:27:40 10° W visible
18 Oct ? 23:56:16 10° ENE 00:00:05 14° NE 00:03:55 10° NNE visible
19 Oct ? 01:46:45 10° ESE 01:53:52 29° ENE 02:00:59 10° NNE visible
19 Oct ? 03:40:33 10° S 03:49:12 62° E 03:57:52 10° NNE visible
19 Oct ? 05:37:19 10° SW 05:46:10 68° WNW 05:55:02 10° NNE visible
19 Oct ? 19:24:08 10° NNW 19:27:06 12° NNW 19:30:04 10° NW visible
19 Oct ? 23:10:16 10° NE 23:11:58 11° NNE 23:13:40 10° NNE visible
20 Oct ? 00:59:06 10° ESE 01:05:15 22° ENE 01:11:23 10° NNE visible
20 Oct ? 02:51:44 10° SSE 02:59:59 47° E 03:08:15 10° NNE visible
20 Oct ? 04:47:27 10° SSW 04:56:21 86° WNW 05:05:16 10° NNE visible
20 Oct ? 06:45:48 10° WSW 06:54:18 47° NW 07:02:49 10° NNE visible
20 Oct ? 18:34:15 10° NNW 18:38:53 16° NW 18:43:30 10° WNW visible
21 Oct ? 00:11:56 10° E 00:16:49 16° NE 00:21:43 10° NNE visible
21 Oct ? 02:03:19 10° SE 02:11:00 35° ENE 02:18:39 10° NNE visible
21 Oct ? 03:58:57 14° S 04:06:45 75° ESE 04:15:34 10° NNE visible
21 Oct ? 05:55:24 10° SW 06:04:08 58° NW 06:12:52 10° NNE visible
21 Oct ? 17:44:34 10° NNW 17:50:30 21° NW 17:56:24 10° W visible
21 Oct ? 19:42:41 10° NNW 19:43:42 10° NNW 19:44:43 10° NNW visible
21 Oct ? 23:25:17 10° ENE 23:28:35 13° NE 23:31:52 10° NNE visible
22 Oct ? 01:15:22 10° ESE 01:22:13 26° ENE 01:29:03 10° NNE visible
22 Oct ? 03:10:25 17° SSE 03:17:22 57° E 03:25:56 10° NNE visible
22 Oct ? 05:06:22 15° SW 05:14:09 73° WNW 05:23:03 10° NNE visible
22 Oct ? 07:04:11 10° WSW 07:12:30 42° NNW 07:20:49 10° NE visible
22 Oct ? 18:52:06 10° NNW 18:55:36 13° NW 18:59:06 10° WNW visible
23 Oct ? 00:27:51 10° E 00:33:39 20° NE 00:39:26 10° NNE visible
23 Oct ? 02:21:49 17° SE 02:28:13 43° E 02:36:19 10° NNE visible
23 Oct ? 04:17:46 20° SSW 04:24:25 89° ESE 04:33:18 10° NNE visible
23 Oct ? 06:13:43 10° WSW 06:22:12 50° NW 06:30:47 10° NNE visible
23 Oct ? 18:02:18 10° NNW 18:07:20 17° NW 18:12:22 10° W visible
23 Oct ? 23:40:49 10° ENE 23:45:17 15° NE 23:49:44 10° NNE visible
24 Oct ? 01:33:10 15° ESE 01:39:17 32° ENE 01:46:43 10° NNE visible
24 Oct ? 03:29:07 24° S 03:34:52 69° E 03:43:38 10° NNE visible
24 Oct ? 05:25:03 18° SW 05:32:05 62° NW 05:40:51 10° NNE visible
24 Oct ? 07:22:38 10° W 07:30:46 38° NNW 07:38:53 10° NE visible
24 Oct ? 19:10:14 10° NNW 19:12:14 11° NNW 19:14:14 10° NW visible
24 Oct ? 22:54:23 10° NE 22:57:05 12° NNE 22:59:47 10° NNE visible
25 Oct ? 00:44:28 11° ESE 00:50:34 24° ENE 00:57:07 10° NNE visible
25 Oct ? 02:40:25 25° SSE 02:45:34 52° E 02:54:00 10° NNE visible
25 Oct ? 04:36:21 25° SSW 04:42:11 78° WNW 04:51:04 10° NNE visible
25 Oct ? 06:32:18 11° WSW 06:40:21 44° NW 06:48:44 10° NE visible
25 Oct ? 18:20:06 10° NNW 18:24:05 14° NW 18:28:04 10° WNW visible
25 Oct ? 23:56:38 10° E 00:02:04 18° NE 00:07:29 10° NNE visible
26 Oct ? 01:51:41 23° SE 01:56:28 39° ENE 02:04:23 10° NNE visible
26 Oct ? 03:47:37 31° S 03:52:29 83° ESE 04:01:21 10° NNE visible
26 Oct ? 05:43:33 19° WSW 05:50:06 53° NW 05:58:44 10° NNE visible
26 Oct ? 17:30:22 10° NNW 17:35:46 18° NW 17:41:10 10° W visible
26 Oct ? 23:09:45 10° ENE 23:13:45 14° NE 23:17:44 10° NNE visible
27 Oct ? 01:02:55 19° ESE 01:07:36 30° ENE 01:14:47 10° NNE visible
27 Oct ? 02:58:51 34° SSE 02:03:00 64° E 02:11:41 10° NNE visible
27 Oct ? 03:54:47 28° SW 04:00:03 66° WNW 04:08:51 10° NNE visible
27 Oct ? 05:50:43 11° W 05:58:35 40° NNW 06:06:47 10° NE visible
27 Oct ? 17:38:04 10° NNW 17:40:45 12° NNW 17:43:25 10° NW visible
27 Oct ? 21:23:38 10° NE 21:25:36 11° NNE 21:27:35 10° NNE visible
